UAL8247 EDFH-KMIA

Flight info

Callsign UAL8247
Flight time N/A
Altitude 34000
Route RUDOT2S RUDOT Y180 BITBU Y181 DEMUL M624 BUB L608 DENUT L610 LAM L179 UGBET Q60 OKSAW DCT FELCA DCT NICXI DCT BAKUR DCT NEBIN/M084F350 DCT 5330N02000W 5330N03000W 53N040W 52N050W DCT TUDEP/N0489F360 N522E ALLEX/N0496F380 DCT FOXBO DCT RIFLE DCT HEADI Q97 KALDA DCT BGBRD Q101 SKARP Y313 HOAGG BNFSH3
Aircraft B77W/H-SDE1E2E3FGHIJ2J3J4J5M1RWXY/LB1D1

Departure

Time N/A
Airport Frankfurt-Hahn Airport (EDFH)

Arrival

Time 2026-05-04 02:35
Airport Miami International Airport (KMIA)
Time Latitude Longitude Altitude Speed Heading
2026-05-03 20:15 53.22739 -37.17811 35401 ft 441 kts 264°
2026-05-03 20:15 53.22044 -37.27908 35401 ft 441 kts 264°
2026-05-03 20:16 53.21336 -37.38062 35389 ft 440 kts 264°
2026-05-03 20:16 53.20621 -37.48204 35397 ft 440 kts 264°
2026-05-03 20:17 53.19896 -37.58344 35401 ft 440 kts 263°
2026-05-03 20:17 53.19163 -37.68482 35394 ft 441 kts 263°
2026-05-03 20:18 53.18421 -37.78620 35389 ft 440 kts 263°
2026-05-03 20:18 53.17671 -37.88753 35392 ft 440 kts 263°
2026-05-03 20:19 53.16912 -37.98878 35385 ft 440 kts 263°
2026-05-03 20:19 53.16144 -38.09003 35390 ft 441 kts 263°
2026-05-03 20:20 53.15373 -38.19070 35388 ft 441 kts 263°
2026-05-03 20:20 53.14586 -38.29205 35386 ft 441 kts 263°
2026-05-03 20:21 53.13791 -38.39351 35388 ft 442 kts 263°
2026-05-03 20:21 53.12986 -38.49493 35376 ft 442 kts 263°
2026-05-03 20:22 53.12172 -38.59642 35389 ft 442 kts 263°
2026-05-03 20:22 53.11349 -38.69797 35380 ft 443 kts 263°
2026-05-03 20:23 53.10517 -38.79951 35381 ft 443 kts 263°
2026-05-03 20:23 53.09675 -38.90110 35380 ft 443 kts 262°
2026-05-03 20:24 53.08825 -39.00261 35375 ft 443 kts 262°
2026-05-03 20:24 53.07967 -39.10411 35375 ft 443 kts 262°
2026-05-03 20:25 53.07100 -39.20551 35373 ft 443 kts 262°
2026-05-03 20:25 53.06230 -39.30619 35375 ft 443 kts 262°
2026-05-03 20:26 53.05347 -39.40745 35370 ft 443 kts 262°
2026-05-03 20:26 53.04454 -39.50871 35370 ft 443 kts 262°
2026-05-03 20:27 53.03554 -39.60988 35383 ft 443 kts 262°
2026-05-03 20:27 53.02644 -39.71120 35361 ft 443 kts 262°
2026-05-03 20:28 53.01724 -39.81253 35364 ft 444 kts 262°
2026-05-03 20:28 53.00796 -39.91390 35359 ft 444 kts 262°
2026-05-03 20:29 52.99891 -40.01544 35356 ft 445 kts 264°
2026-05-03 20:29 52.99291 -40.11754 35356 ft 445 kts 265°
2026-05-03 20:30 52.98723 -40.21976 35343 ft 445 kts 264°
2026-05-03 20:30 52.98138 -40.32205 35353 ft 445 kts 264°
2026-05-03 20:31 52.97535 -40.42433 35351 ft 446 kts 264°
2026-05-03 20:31 52.96918 -40.52673 35347 ft 446 kts 264°
2026-05-03 20:32 52.96291 -40.62923 35345 ft 447 kts 264°
2026-05-03 20:32 52.95654 -40.73181 35340 ft 447 kts 264°
2026-05-03 20:33 52.95010 -40.83436 35332 ft 447 kts 263°
2026-05-03 20:33 52.94355 -40.93694 35333 ft 447 kts 263°
2026-05-03 20:34 52.93697 -41.03880 35334 ft 448 kts 263°
2026-05-03 20:34 52.93024 -41.14138 35333 ft 448 kts 263°
2026-05-03 20:35 52.92343 -41.24403 35329 ft 448 kts 263°
2026-05-03 20:35 52.91652 -41.34664 35323 ft 448 kts 263°
2026-05-03 20:36 52.90953 -41.44921 35317 ft 448 kts 263°
2026-05-03 20:36 52.90244 -41.55193 35323 ft 449 kts 263°
2026-05-03 20:37 52.89524 -41.65474 35319 ft 450 kts 263°
2026-05-03 20:37 52.88795 -41.75771 35319 ft 450 kts 263°
2026-05-03 20:38 52.88056 -41.86071 35313 ft 451 kts 263°
2026-05-03 20:38 52.87436 -41.94627 35313 ft 451 kts 262°
2026-05-03 20:39 52.86680 -42.04927 35301 ft 451 kts 262°
2026-05-03 20:39 52.85917 -42.15214 35305 ft 450 kts 262°
2026-05-03 20:40 52.85144 -42.25494 35302 ft 450 kts 262°
2026-05-03 20:40 52.84363 -42.35772 35302 ft 450 kts 262°
2026-05-03 20:41 52.83572 -42.46049 35293 ft 451 kts 262°
2026-05-03 20:41 52.82772 -42.56327 35293 ft 451 kts 262°
2026-05-03 20:42 52.81964 -42.66608 35292 ft 451 kts 261°
2026-05-03 20:42 52.81145 -42.76894 35268 ft 451 kts 261°
2026-05-03 20:43 52.80317 -42.87177 35280 ft 452 kts 261°
2026-05-03 20:43 52.79480 -42.97462 35275 ft 452 kts 261°
2026-05-03 20:44 52.78634 -43.07749 35276 ft 452 kts 261°
2026-05-03 20:44 52.77779 -43.18031 35270 ft 452 kts 261°
2026-05-03 20:45 52.76914 -43.28315 35282 ft 453 kts 261°
2026-05-03 20:45 52.76038 -43.38626 35267 ft 454 kts 261°
2026-05-03 20:46 52.75156 -43.48887 35251 ft 455 kts 261°
2026-05-03 20:46 52.74258 -43.59240 35253 ft 456 kts 260°
2026-05-03 20:47 52.73350 -43.69600 35245 ft 456 kts 260°
2026-05-03 20:47 52.72432 -43.79957 35252 ft 456 kts 260°
2026-05-03 20:48 52.71504 -43.90330 35242 ft 457 kts 260°
2026-05-03 20:48 52.70566 -44.00707 35239 ft 458 kts 260°
2026-05-03 20:49 52.69617 -44.11099 35245 ft 459 kts 260°
2026-05-03 20:49 52.68658 -44.21496 35235 ft 459 kts 260°
2026-05-03 20:50 52.67688 -44.31903 35226 ft 460 kts 260°
2026-05-03 20:50 52.66709 -44.42312 35215 ft 460 kts 260°
2026-05-03 20:51 52.65720 -44.52728 35218 ft 460 kts 260°
2026-05-03 20:51 52.64727 -44.63075 35219 ft 461 kts 260°
2026-05-03 20:52 52.63718 -44.73495 35217 ft 461 kts 259°
2026-05-03 20:52 52.62700 -44.83915 35212 ft 461 kts 259°
2026-05-03 20:53 52.61671 -44.94341 35210 ft 461 kts 259°
2026-05-03 20:53 52.60634 -45.04753 35207 ft 461 kts 259°
2026-05-03 20:54 52.59589 -45.15154 35192 ft 461 kts 259°
2026-05-03 20:54 52.58005 -45.30732 35192 ft 460 kts 259°
2026-05-03 20:55 52.56937 -45.41114 35189 ft 461 kts 259°
2026-05-03 20:55 52.55860 -45.51490 35182 ft 460 kts 259°
2026-05-03 20:56 52.54775 -45.61856 35176 ft 460 kts 259°
2026-05-03 20:56 52.53681 -45.72217 35177 ft 460 kts 259°
2026-05-03 20:57 52.52578 -45.82576 35171 ft 461 kts 259°
2026-05-03 20:57 52.51472 -45.92863 35182 ft 461 kts 259°
2026-05-03 20:58 52.50349 -46.03223 35162 ft 461 kts 259°
2026-05-03 20:58 52.49216 -46.13588 35156 ft 461 kts 259°
2026-05-03 20:59 52.48075 -46.23936 35160 ft 461 kts 259°
2026-05-03 20:59 52.46927 -46.34268 35148 ft 460 kts 259°
2026-05-03 21:00 52.45966 -46.42840 35151 ft 460 kts 259°
2026-05-03 21:00 52.44608 -46.54872 35146 ft 459 kts 259°
2026-05-03 21:01 52.43436 -46.65151 35137 ft 459 kts 259°
2026-05-03 21:01 52.42256 -46.75422 35128 ft 458 kts 259°
2026-05-03 21:02 52.41069 -46.85676 35143 ft 458 kts 259°
2026-05-03 21:02 52.39873 -46.95920 35127 ft 458 kts 259°
2026-05-03 21:03 52.38669 -47.06150 35119 ft 457 kts 259°
2026-05-03 21:03 52.37457 -47.16369 35120 ft 457 kts 259°
2026-05-03 21:04 52.36237 -47.26576 35114 ft 457 kts 259°
2026-05-03 21:04 52.35010 -47.36767 35103 ft 456 kts 259°
2026-05-03 21:05 52.33774 -47.46947 35105 ft 456 kts 259°
2026-05-03 21:05 52.32532 -47.57105 35103 ft 456 kts 259°
2026-05-03 21:06 52.31289 -47.67190 35096 ft 456 kts 259°
2026-05-03 21:06 52.30029 -47.77343 35101 ft 456 kts 259°
2026-05-03 21:07 52.28760 -47.87488 35077 ft 456 kts 259°
2026-05-03 21:07 52.27484 -47.97613 35083 ft 455 kts 259°
2026-05-03 21:08 52.26202 -48.07709 35075 ft 454 kts 259°
2026-05-03 21:08 52.24914 -48.17787 35078 ft 453 kts 259°
2026-05-03 21:09 52.23618 -48.27848 35077 ft 453 kts 259°
2026-05-03 21:09 52.22315 -48.37900 35065 ft 453 kts 259°
2026-05-03 21:10 52.21002 -48.47940 35060 ft 452 kts 259°
2026-05-03 21:10 52.19684 -48.57959 35066 ft 452 kts 259°
2026-05-03 21:11 52.18360 -48.67957 35059 ft 451 kts 259°
2026-05-03 21:11 52.17029 -48.77936 35042 ft 451 kts 259°
2026-05-03 21:12 52.15691 -48.87898 35042 ft 450 kts 259°
2026-05-03 21:12 52.14345 -48.97845 35044 ft 450 kts 259°
2026-05-03 21:13 52.13002 -49.07703 35028 ft 448 kts 259°
2026-05-03 21:13 52.11647 -49.17592 35029 ft 447 kts 259°
2026-05-03 21:14 52.10287 -49.27447 35026 ft 446 kts 259°
2026-05-03 21:14 52.08922 -49.37274 35027 ft 445 kts 259°
2026-05-03 21:15 52.07550 -49.47089 35032 ft 445 kts 259°
2026-05-03 21:15 52.06171 -49.56885 35005 ft 444 kts 259°
2026-05-03 21:16 52.04790 -49.66631 35017 ft 441 kts 259°
2026-05-03 21:16 52.03409 -49.76325 35022 ft 439 kts 259°
2026-05-03 21:17 52.02260 -49.84347 35013 ft 438 kts 259°
2026-05-03 21:17 52.00638 -49.95596 35018 ft 438 kts 259°
2026-05-03 21:18 51.98848 -50.05047 35021 ft 440 kts 251°
2026-05-03 21:18 51.96583 -50.14279 35007 ft 440 kts 251°
2026-05-03 21:19 51.94334 -50.23506 35014 ft 440 kts 251°
2026-05-03 21:19 51.92095 -50.32721 35013 ft 439 kts 251°
2026-05-03 21:20 51.89856 -50.41916 35020 ft 438 kts 251°
2026-05-03 21:20 51.87620 -50.51063 35000 ft 436 kts 251°
2026-05-03 21:21 51.85398 -50.60110 35003 ft 435 kts 251°
2026-05-03 21:21 51.83162 -50.69179 35006 ft 434 kts 251°
2026-05-03 21:22 51.80921 -50.78231 35012 ft 434 kts 251°
2026-05-03 21:22 51.78673 -50.87274 35008 ft 434 kts 251°
2026-05-03 21:23 51.76416 -50.96318 34997 ft 435 kts 251°
2026-05-03 21:23 51.74147 -51.05370 34995 ft 435 kts 251°
2026-05-03 21:24 51.71874 -51.14401 34996 ft 434 kts 251°
2026-05-03 21:24 51.69599 -51.23404 35001 ft 433 kts 251°
2026-05-03 21:25 51.67321 -51.32384 34999 ft 432 kts 251°
2026-05-03 21:25 51.65042 -51.41334 34999 ft 432 kts 251°
2026-05-03 21:26 51.62755 -51.50276 35001 ft 432 kts 251°
2026-05-03 21:26 51.60461 -51.59211 34990 ft 432 kts 250°
2026-05-03 21:27 51.58162 -51.68132 34993 ft 432 kts 250°
2026-05-03 21:27 51.55853 -51.77054 34992 ft 432 kts 250°
2026-05-03 21:28 51.53536 -51.85971 34993 ft 433 kts 250°
2026-05-03 21:28 51.51228 -51.94820 34991 ft 433 kts 250°
2026-05-03 21:29 51.48899 -52.03717 34985 ft 431 kts 250°
2026-05-03 21:29 51.46583 -52.12524 34979 ft 426 kts 250°
2026-05-03 21:30 51.44654 -52.19833 34981 ft 423 kts 250°
2026-05-03 21:30 51.42363 -52.28490 34984 ft 421 kts 250°
2026-05-03 21:31 51.40091 -52.37042 34987 ft 420 kts 249°
2026-05-03 21:31 51.37801 -52.45633 34979 ft 420 kts 249°
2026-05-03 21:32 51.35508 -52.54198 34987 ft 418 kts 248°
2026-05-03 21:32 51.33217 -52.62722 34979 ft 416 kts 248°
2026-05-03 21:33 51.30929 -52.71205 34980 ft 415 kts 248°
2026-05-03 21:33 51.28643 -52.79652 34977 ft 414 kts 248°
2026-05-03 21:34 51.26355 -52.88074 34979 ft 413 kts 248°
2026-05-03 21:34 51.24065 -52.96475 34975 ft 412 kts 248°
2026-05-03 21:35 51.21783 -53.04819 34974 ft 410 kts 248°
2026-05-03 21:35 51.19504 -53.13124 34969 ft 408 kts 248°
2026-05-03 21:36 51.17223 -53.21386 34969 ft 407 kts 246°
2026-05-03 21:36 51.14479 -53.29274 34970 ft 408 kts 241°
2026-05-03 21:37 51.11544 -53.37003 34964 ft 408 kts 241°
2026-05-03 21:37 51.08624 -53.44731 34964 ft 407 kts 241°
2026-05-03 21:38 51.05707 -53.52443 34967 ft 407 kts 241°
2026-05-03 21:38 51.02784 -53.60147 34959 ft 407 kts 241°
2026-05-03 21:39 50.99854 -53.67844 34970 ft 407 kts 240°
2026-05-03 21:39 50.96921 -53.75533 34961 ft 407 kts 239°
2026-05-03 21:40 50.93984 -53.83204 34952 ft 407 kts 239°
2026-05-03 21:40 50.91045 -53.90854 34951 ft 406 kts 239°
2026-05-03 21:41 50.88124 -53.98436 34948 ft 406 kts 239°
2026-05-03 21:41 50.85181 -54.06055 34945 ft 405 kts 239°
2026-05-03 21:42 50.82235 -54.13660 34942 ft 405 kts 239°
2026-05-03 21:42 50.79286 -54.21251 34942 ft 405 kts 239°
2026-05-03 21:43 50.76329 -54.28836 34942 ft 405 kts 239°
2026-05-03 21:43 50.73369 -54.36409 34940 ft 405 kts 239°
2026-05-03 21:44 50.70403 -54.43977 34936 ft 405 kts 239°
2026-05-03 21:44 50.67430 -54.51540 34932 ft 406 kts 238°
2026-05-03 21:45 50.64450 -54.59097 34932 ft 406 kts 238°
2026-05-03 21:45 50.61462 -54.66653 34932 ft 407 kts 238°
2026-05-03 21:46 50.58468 -54.74203 34932 ft 407 kts 238°
2026-05-03 21:46 50.55464 -54.81754 34926 ft 407 kts 238°
2026-05-03 21:47 50.52456 -54.89296 34925 ft 407 kts 238°
2026-05-03 21:47 50.49443 -54.96828 34921 ft 407 kts 238°
2026-05-03 21:48 50.46422 -55.04356 34917 ft 407 kts 238°
2026-05-03 21:48 50.43398 -55.11871 34919 ft 407 kts 238°
2026-05-03 21:49 50.40369 -55.19378 34920 ft 407 kts 238°
2026-05-03 21:49 50.37336 -55.26874 34920 ft 407 kts 238°
2026-05-03 21:50 50.34306 -55.34338 34918 ft 406 kts 238°
2026-05-03 21:50 50.31280 -55.41774 34919 ft 405 kts 238°
2026-05-03 21:51 50.28255 -55.49186 34918 ft 404 kts 238°
2026-05-03 21:51 50.25229 -55.56578 34920 ft 403 kts 237°
2026-05-03 21:52 50.22202 -55.63954 34923 ft 403 kts 237°
2026-05-03 21:52 50.19196 -55.71256 34920 ft 402 kts 237°
2026-05-03 21:53 50.16170 -55.78587 34921 ft 402 kts 237°
2026-05-03 21:53 50.13143 -55.85900 34920 ft 401 kts 237°
2026-05-03 21:54 50.10112 -55.93202 34920 ft 401 kts 237°
2026-05-03 21:54 50.07079 -56.00491 34920 ft 402 kts 236°
2026-05-03 21:55 50.04031 -56.07792 34926 ft 403 kts 236°
2026-05-03 21:55 50.00966 -56.15115 34920 ft 405 kts 236°
2026-05-03 21:56 49.97888 -56.22446 34931 ft 406 kts 236°
2026-05-03 21:56 49.94796 -56.29796 34936 ft 407 kts 236°
2026-05-03 21:57 49.91695 -56.37142 34909 ft 407 kts 235°
2026-05-03 21:57 49.88588 -56.44483 34918 ft 407 kts 234°
2026-05-03 21:58 49.85476 -56.51816 34916 ft 407 kts 234°
2026-05-03 21:58 49.82361 -56.59136 34912 ft 407 kts 234°
2026-05-03 21:59 49.79240 -56.66450 34913 ft 407 kts 234°
2026-05-03 21:59 49.76136 -56.73705 34914 ft 407 kts 234°
2026-05-03 22:00 49.73003 -56.81007 34931 ft 408 kts 234°
2026-05-03 22:00 49.69859 -56.88311 34926 ft 408 kts 234°
2026-05-03 22:01 49.66707 -56.95617 34927 ft 409 kts 234°
2026-05-03 22:01 49.63546 -57.02922 34901 ft 409 kts 234°
2026-05-03 22:02 49.60375 -57.10229 34899 ft 410 kts 233°
2026-05-03 22:02 49.57191 -57.17547 34885 ft 412 kts 233°
2026-05-03 22:03 49.53995 -57.24874 34888 ft 412 kts 233°
2026-05-03 22:03 49.50789 -57.32202 34879 ft 413 kts 233°
2026-05-03 22:04 49.47598 -57.39478 34867 ft 413 kts 233°
2026-05-03 22:04 49.44383 -57.46786 34865 ft 413 kts 233°
2026-05-03 22:05 49.41160 -57.54093 34868 ft 414 kts 233°
2026-05-03 22:05 49.37928 -57.61400 34856 ft 414 kts 233°
2026-05-03 22:06 49.34687 -57.68708 34838 ft 414 kts 233°
2026-05-03 22:06 49.31439 -57.76012 34818 ft 415 kts 233°
2026-05-03 22:07 49.28169 -57.83343 34983 ft 419 kts 233°
2026-05-03 22:07 49.26526 -57.87018 35322 ft 418 kts 233°
2026-05-03 22:07 49.24889 -57.90678 35713 ft 416 kts 233°
2026-05-03 22:08 49.21592 -57.98029 35788 ft 420 kts 233°
2026-05-03 22:08 49.18309 -58.05337 35775 ft 413 kts 233°
2026-05-03 22:09 49.15054 -58.12557 35780 ft 414 kts 232°
2026-05-03 22:10 49.10129 -58.23438 35773 ft 416 kts 232°
2026-05-03 22:10 49.06830 -58.30707 35761 ft 417 kts 232°
2026-05-03 22:11 49.03540 -58.37931 35761 ft 418 kts 232°
2026-05-03 22:11 49.00222 -58.45206 35744 ft 418 kts 232°
2026-05-03 22:12 48.96903 -58.52463 35741 ft 418 kts 232°
2026-05-03 22:12 48.93577 -58.59708 35739 ft 417 kts 232°
2026-05-03 22:13 48.90252 -58.66935 35734 ft 417 kts 232°
2026-05-03 22:13 48.86924 -58.74150 35752 ft 418 kts 231°
2026-05-03 22:14 48.83578 -58.81383 35725 ft 419 kts 231°
2026-05-03 22:14 48.80219 -58.88622 35723 ft 420 kts 231°
2026-05-03 22:15 48.76853 -58.95862 35725 ft 420 kts 231°
2026-05-03 22:15 48.73477 -59.03102 35737 ft 421 kts 231°
2026-05-03 22:16 48.70095 -59.10336 35744 ft 421 kts 231°
2026-05-03 22:16 48.66708 -59.17561 35728 ft 421 kts 231°
2026-05-03 22:17 48.63320 -59.24768 35732 ft 420 kts 231°
2026-05-03 22:17 48.59932 -59.31956 35729 ft 420 kts 231°
2026-05-03 22:18 48.56545 -59.39125 35731 ft 419 kts 231°
2026-05-03 22:18 48.53725 -59.45076 35736 ft 420 kts 231°
2026-05-03 22:19 48.50325 -59.52237 35732 ft 420 kts 231°
2026-05-03 22:19 48.46917 -59.59392 35725 ft 420 kts 231°
2026-05-03 22:20 48.42949 -59.67704 35730 ft 420 kts 231°
2026-05-03 22:20 48.40084 -59.73687 35741 ft 421 kts 231°
2026-05-03 22:21 48.36658 -59.80828 35727 ft 421 kts 230°
2026-05-03 22:21 48.33221 -59.87970 35763 ft 422 kts 230°
2026-05-03 22:22 48.29796 -59.95070 35737 ft 423 kts 229°
2026-05-03 22:22 48.26333 -60.02227 35724 ft 424 kts 229°
2026-05-03 22:23 48.22861 -60.09383 35712 ft 424 kts 229°
2026-05-03 22:23 48.19383 -60.16535 35723 ft 425 kts 229°
2026-05-03 22:24 48.15897 -60.23686 35727 ft 425 kts 229°
2026-05-03 22:24 48.12407 -60.30826 35717 ft 425 kts 229°
2026-05-03 22:25 48.08911 -60.37960 35720 ft 425 kts 228°
2026-05-03 22:25 48.05409 -60.45086 35704 ft 426 kts 228°
2026-05-03 22:26 48.01896 -60.52215 35704 ft 426 kts 228°
2026-05-03 22:26 47.98400 -60.59292 35705 ft 426 kts 228°
2026-05-03 22:27 47.94851 -60.66458 35702 ft 427 kts 228°
2026-05-03 22:27 47.91339 -60.73528 35694 ft 428 kts 228°
2026-05-03 22:28 47.87788 -60.80660 35693 ft 429 kts 228°
2026-05-03 22:28 47.84220 -60.87807 35687 ft 430 kts 228°
2026-05-03 22:29 47.80642 -60.94956 35679 ft 431 kts 228°
2026-05-03 22:29 47.77050 -61.02116 35712 ft 433 kts 228°
2026-05-03 22:30 47.73431 -61.09308 35679 ft 435 kts 228°
2026-05-03 22:30 47.69796 -61.16514 35674 ft 436 kts 228°
2026-05-03 22:31 47.66150 -61.23723 35655 ft 437 kts 228°
2026-05-03 22:31 47.62499 -61.30924 35647 ft 437 kts 228°
2026-05-03 22:32 47.58847 -61.38108 35643 ft 436 kts 228°
2026-05-03 22:32 47.55200 -61.45263 35637 ft 435 kts 228°
2026-05-03 22:33 47.51557 -61.52390 35628 ft 434 kts 228°
2026-05-03 22:33 47.47943 -61.59442 35622 ft 433 kts 227°
2026-05-03 22:34 47.44303 -61.66527 35620 ft 432 kts 227°
2026-05-03 22:34 47.40664 -61.73591 35619 ft 432 kts 227°
2026-05-03 22:35 47.37019 -61.80649 35617 ft 432 kts 227°
2026-05-03 22:35 47.33370 -61.87696 35625 ft 433 kts 227°
2026-05-03 22:36 47.29710 -61.94747 35620 ft 434 kts 227°
2026-05-03 22:36 47.26035 -62.01807 35606 ft 435 kts 227°
2026-05-03 22:37 47.22347 -62.08874 35603 ft 438 kts 228°
2026-05-03 22:37 47.18620 -62.15996 35587 ft 441 kts 228°
2026-05-03 22:38 47.14858 -62.23168 35592 ft 444 kts 227°
2026-05-03 22:38 47.11077 -62.30362 35591 ft 445 kts 227°
2026-05-03 22:39 47.07286 -62.37556 35579 ft 445 kts 227°
2026-05-03 22:39 47.03497 -62.44726 35575 ft 444 kts 227°
2026-05-03 22:40 46.99711 -62.51870 35581 ft 443 kts 227°
2026-05-03 22:40 46.95924 -62.58998 35568 ft 443 kts 227°
2026-05-03 22:41 46.92162 -62.66059 35556 ft 443 kts 227°
2026-05-03 22:41 46.88375 -62.73150 35563 ft 442 kts 227°
2026-05-03 22:42 46.84584 -62.80230 35576 ft 443 kts 227°
2026-05-03 22:42 46.80782 -62.87311 35558 ft 443 kts 227°
2026-05-03 22:43 46.76971 -62.94392 35555 ft 444 kts 227°
2026-05-03 22:43 46.73153 -63.01469 35552 ft 444 kts 227°
2026-05-03 22:44 46.69327 -63.08540 35568 ft 445 kts 227°
2026-05-03 22:44 46.65477 -63.15638 35557 ft 447 kts 227°
2026-05-03 22:45 46.61610 -63.22750 35548 ft 449 kts 227°
2026-05-03 22:45 46.57729 -63.29870 35544 ft 450 kts 227°
2026-05-03 22:46 46.53831 -63.37001 35559 ft 451 kts 227°
2026-05-03 22:46 46.49944 -63.44096 35539 ft 452 kts 227°
2026-05-03 22:47 46.46022 -63.51236 35543 ft 452 kts 227°
2026-05-03 22:47 46.42096 -63.58366 35541 ft 452 kts 227°
2026-05-03 22:48 46.38170 -63.65476 35529 ft 452 kts 227°
2026-05-03 22:48 46.34238 -63.72578 35529 ft 452 kts 227°
2026-05-03 22:49 46.30300 -63.79673 35519 ft 452 kts 227°
2026-05-03 22:49 46.26359 -63.86756 35511 ft 452 kts 227°
2026-05-03 22:50 46.22411 -63.93834 35530 ft 453 kts 227°
2026-05-03 22:50 46.18450 -64.00914 35512 ft 454 kts 227°
2026-05-03 22:51 46.14475 -64.08003 35535 ft 455 kts 227°
2026-05-03 22:51 46.10480 -64.15102 35508 ft 457 kts 227°
2026-05-03 22:52 46.06484 -64.22196 35491 ft 464 kts 228°
2026-05-03 22:52 46.02377 -64.29465 35496 ft 470 kts 228°
2026-05-03 22:53 45.98248 -64.36757 35480 ft 470 kts 228°
2026-05-03 22:53 45.94119 -64.44029 35480 ft 469 kts 228°
2026-05-03 22:54 45.89992 -64.51276 35475 ft 468 kts 228°
2026-05-03 22:54 45.85870 -64.58497 35472 ft 467 kts 228°
2026-05-03 22:55 45.81748 -64.65698 35479 ft 467 kts 228°
2026-05-03 22:55 45.77627 -64.72877 35490 ft 466 kts 228°
2026-05-03 22:56 45.73504 -64.80043 35480 ft 466 kts 228°
2026-05-03 22:56 45.69379 -64.87195 35472 ft 466 kts 228°
2026-05-03 22:57 45.65254 -64.94328 35474 ft 465 kts 228°
2026-05-03 22:57 45.61124 -65.01451 35471 ft 465 kts 228°
2026-05-03 22:58 45.56985 -65.08570 35498 ft 467 kts 228°
2026-05-03 22:58 45.52858 -65.15652 35497 ft 468 kts 228°
2026-05-03 22:59 45.48748 -65.22688 35496 ft 469 kts 228°
2026-05-03 22:59 45.44570 -65.29822 35493 ft 469 kts 228°
2026-05-03 23:00 45.40390 -65.36941 35491 ft 468 kts 228°
2026-05-03 23:00 45.36211 -65.44042 35513 ft 468 kts 228°
2026-05-03 23:01 45.32034 -65.51118 35514 ft 467 kts 228°
2026-05-03 23:01 45.27853 -65.58183 35520 ft 467 kts 229°
2026-05-03 23:02 45.23671 -65.65235 35513 ft 467 kts 228°
2026-05-03 23:02 45.19479 -65.72284 35514 ft 467 kts 228°
2026-05-03 23:03 45.15283 -65.79324 35524 ft 468 kts 229°
2026-05-03 23:03 45.11081 -65.86356 35524 ft 468 kts 229°
2026-05-03 23:04 45.06871 -65.93382 35540 ft 468 kts 229°
2026-05-03 23:04 45.02659 -66.00396 35549 ft 468 kts 229°
2026-05-03 23:05 44.98473 -66.07349 35548 ft 467 kts 229°
2026-05-03 23:05 44.94265 -66.14321 35561 ft 466 kts 229°
2026-05-03 23:06 44.90065 -66.21261 35544 ft 465 kts 229°
2026-05-03 23:06 44.85870 -66.28178 35537 ft 464 kts 229°
2026-05-03 23:07 44.81676 -66.35076 35541 ft 463 kts 229°
2026-05-03 23:07 44.77483 -66.41954 35555 ft 463 kts 229°
2026-05-03 23:08 44.73285 -66.48825 35564 ft 463 kts 229°
2026-05-03 23:08 44.69085 -66.55682 35555 ft 463 kts 229°
2026-05-03 23:09 44.64875 -66.62540 35558 ft 463 kts 229°
2026-05-03 23:09 44.60660 -66.69388 35566 ft 464 kts 229°
2026-05-03 23:10 44.56438 -66.76232 35563 ft 464 kts 229°
2026-05-03 23:10 44.52211 -66.83067 35593 ft 464 kts 229°
2026-05-03 23:11 44.47972 -66.89907 35603 ft 465 kts 229°
2026-05-03 23:11 44.43722 -66.96750 35599 ft 466 kts 229°
2026-05-03 23:12 44.39306 -67.03394 35615 ft 466 kts 225°
2026-05-03 23:12 44.34666 -67.09740 35622 ft 467 kts 224°
2026-05-03 23:13 44.30017 -67.16078 35624 ft 467 kts 224°
2026-05-03 23:13 44.25370 -67.22426 35627 ft 467 kts 224°
2026-05-03 23:14 44.20761 -67.28726 35638 ft 467 kts 225°
2026-05-03 23:14 44.16120 -67.35058 35642 ft 467 kts 225°
2026-05-03 23:15 44.11478 -67.41377 35653 ft 467 kts 225°
2026-05-03 23:15 44.06834 -67.47682 35650 ft 466 kts 225°
2026-05-03 23:16 44.02187 -67.53977 35657 ft 466 kts 225°
2026-05-03 23:16 43.97540 -67.60257 35662 ft 466 kts 225°
2026-05-03 23:17 43.92893 -67.66522 35666 ft 466 kts 225°
2026-05-03 23:17 43.89030 -67.71719 35669 ft 465 kts 225°
2026-05-03 23:18 43.84383 -67.77958 35683 ft 465 kts 225°
2026-05-03 23:18 43.79731 -67.84191 35688 ft 465 kts 225°
2026-05-03 23:19 43.74320 -67.91421 35691 ft 466 kts 225°
2026-05-03 23:19 43.70414 -67.96629 35689 ft 466 kts 225°
2026-05-03 23:20 43.65747 -68.02839 35696 ft 466 kts 225°
2026-05-03 23:20 43.61074 -68.09041 35700 ft 466 kts 225°
2026-05-03 23:21 43.56435 -68.15185 35705 ft 465 kts 225°
2026-05-03 23:21 43.51763 -68.21359 35706 ft 465 kts 225°
2026-05-03 23:22 43.44755 -68.30594 35707 ft 465 kts 225°
2026-05-03 23:22 43.40082 -68.36734 35721 ft 464 kts 225°
2026-05-03 23:23 43.35409 -68.42861 35725 ft 464 kts 225°
2026-05-03 23:23 43.30734 -68.48977 35731 ft 464 kts 225°
2026-05-03 23:24 43.26058 -68.55080 35735 ft 464 kts 225°
2026-05-03 23:24 43.21382 -68.61169 35738 ft 464 kts 225°
2026-05-03 23:25 43.16733 -68.67211 35742 ft 463 kts 225°
2026-05-03 23:25 43.12055 -68.73275 35745 ft 463 kts 225°
2026-05-03 23:26 43.07375 -68.79329 35744 ft 463 kts 225°
2026-05-03 23:26 43.02696 -68.85371 35769 ft 463 kts 225°
2026-05-03 23:27 42.98013 -68.91402 35760 ft 462 kts 225°
2026-05-03 23:27 42.93333 -68.97416 35762 ft 462 kts 225°
2026-05-03 23:28 42.88657 -69.03413 35775 ft 461 kts 225°
2026-05-03 23:28 42.83980 -69.09397 35766 ft 461 kts 225°
2026-05-03 23:29 42.79302 -69.15370 35773 ft 461 kts 225°
2026-05-03 23:29 42.74624 -69.21331 35793 ft 461 kts 225°
2026-05-03 23:30 42.69938 -69.27288 35780 ft 461 kts 225°
2026-05-03 23:30 42.65248 -69.33237 35790 ft 461 kts 225°
2026-05-03 23:31 42.60558 -69.39173 35791 ft 461 kts 225°
2026-05-03 23:31 42.55867 -69.45098 35802 ft 461 kts 225°
2026-05-03 23:32 42.51173 -69.51013 35812 ft 460 kts 225°
2026-05-03 23:32 42.46485 -69.56910 35802 ft 460 kts 225°
2026-05-03 23:33 42.41824 -69.62759 35813 ft 460 kts 225°
2026-05-03 23:33 42.37130 -69.68637 35813 ft 459 kts 225°
2026-05-03 23:34 42.32440 -69.74499 35820 ft 459 kts 225°
2026-05-03 23:34 42.27749 -69.80348 35826 ft 459 kts 225°
2026-05-03 23:35 42.23058 -69.86186 35833 ft 459 kts 225°
2026-05-03 23:35 42.18363 -69.92015 35835 ft 459 kts 225°
2026-05-03 23:36 42.13667 -69.97835 35842 ft 459 kts 225°
2026-05-03 23:36 42.08967 -70.03647 35842 ft 459 kts 225°
2026-05-03 23:37 42.04260 -70.09456 35829 ft 459 kts 225°
2026-05-03 23:37 41.99555 -70.15251 35838 ft 458 kts 225°
2026-05-03 23:38 41.94881 -70.20996 35851 ft 458 kts 226°
2026-05-03 23:38 41.90539 -70.27211 35842 ft 455 kts 234°
2026-05-03 23:39 41.86948 -70.34158 35834 ft 453 kts 238°
2026-05-03 23:39 41.83426 -70.41155 35847 ft 453 kts 238°
2026-05-03 23:40 41.79883 -70.48135 35851 ft 453 kts 238°
2026-05-03 23:40 41.76331 -70.55095 35870 ft 453 kts 238°
2026-05-03 23:41 41.72772 -70.62048 35849 ft 452 kts 238°
2026-05-03 23:41 41.69213 -70.68986 35855 ft 452 kts 238°
2026-05-03 23:42 41.65658 -70.75901 35851 ft 451 kts 238°
2026-05-03 23:42 41.62102 -70.82802 35859 ft 451 kts 238°
2026-05-03 23:43 41.58544 -70.89693 35869 ft 450 kts 238°
2026-05-03 23:43 41.54986 -70.96568 35858 ft 450 kts 238°
2026-05-03 23:44 41.51448 -71.03389 35854 ft 450 kts 238°
2026-05-03 23:44 41.47881 -71.10249 35854 ft 450 kts 238°
2026-05-03 23:45 41.44310 -71.17102 35839 ft 450 kts 238°
2026-05-03 23:45 41.40743 -71.23932 35846 ft 449 kts 238°
2026-05-03 23:46 41.37173 -71.30753 35877 ft 448 kts 238°
2026-05-03 23:46 41.33603 -71.37559 35886 ft 448 kts 238°
2026-05-03 23:47 41.30032 -71.44351 35896 ft 448 kts 238°
2026-05-03 23:47 41.26457 -71.51137 35905 ft 448 kts 238°
2026-05-03 23:48 41.22878 -71.57915 35915 ft 448 kts 238°
2026-05-03 23:48 41.19294 -71.64688 35916 ft 448 kts 238°
2026-05-03 23:49 41.15700 -71.71464 35914 ft 449 kts 238°
2026-05-03 23:49 41.12102 -71.78231 35917 ft 449 kts 238°
2026-05-03 23:50 41.09111 -71.83847 35926 ft 448 kts 238°
2026-05-03 23:50 41.04906 -71.91725 35933 ft 448 kts 238°
2026-05-03 23:51 41.01303 -71.98459 35924 ft 448 kts 238°
2026-05-03 23:51 40.97725 -72.05133 35910 ft 447 kts 238°
2026-05-03 23:52 40.94122 -72.11836 35922 ft 447 kts 238°
2026-05-03 23:52 40.90523 -72.18521 35924 ft 446 kts 238°
2026-05-03 23:53 40.86919 -72.25199 35917 ft 446 kts 238°
2026-05-03 23:53 40.83312 -72.31868 35919 ft 446 kts 238°
2026-05-03 23:54 40.79705 -72.38523 35915 ft 445 kts 238°
2026-05-03 23:54 40.76106 -72.45151 35922 ft 444 kts 238°
2026-05-03 23:55 40.72506 -72.51769 35925 ft 444 kts 238°
2026-05-03 23:55 40.68895 -72.58359 35935 ft 444 kts 237°
2026-05-03 23:56 40.64994 -72.64688 35923 ft 445 kts 235°
2026-05-03 23:56 40.61046 -72.70950 35933 ft 444 kts 234°
2026-05-03 23:57 40.57108 -72.77204 35940 ft 444 kts 235°
2026-05-03 23:57 40.53187 -72.83442 35942 ft 443 kts 235°
2026-05-03 23:58 40.49259 -72.89686 35939 ft 443 kts 235°
2026-05-03 23:58 40.45333 -72.95912 35938 ft 442 kts 235°
2026-05-03 23:59 40.41408 -73.02127 35953 ft 442 kts 235°
2026-05-03 23:59 40.37504 -73.08294 35954 ft 442 kts 235°
2026-05-04 00:00 40.33569 -73.14498 35962 ft 442 kts 235°
2026-05-04 00:00 40.29633 -73.20689 35955 ft 442 kts 235°
2026-05-04 00:01 40.25699 -73.26868 35963 ft 441 kts 235°
2026-05-04 00:01 40.21765 -73.33032 35968 ft 441 kts 235°
2026-05-04 00:02 40.17827 -73.39193 35974 ft 441 kts 234°
2026-05-04 00:02 40.13882 -73.45350 35957 ft 441 kts 235°
2026-05-04 00:03 40.09949 -73.51477 35973 ft 440 kts 235°
2026-05-04 00:03 40.06021 -73.57587 35991 ft 439 kts 235°
2026-05-04 00:04 40.02097 -73.63679 35990 ft 438 kts 235°
2026-05-04 00:04 39.97986 -73.69575 36001 ft 445 kts 226°
2026-05-04 00:05 39.92880 -73.74238 35998 ft 453 kts 217°
2026-05-04 00:05 39.87058 -73.77618 35999 ft 461 kts 209°
2026-05-04 00:06 39.81140 -73.80665 36006 ft 460 kts 209°
2026-05-04 00:06 39.75199 -73.83764 35982 ft 459 kts 210°
2026-05-04 00:07 39.69285 -73.86890 35998 ft 458 kts 210°
2026-05-04 00:07 39.63379 -73.90018 36006 ft 458 kts 210°
2026-05-04 00:08 39.57473 -73.93138 36011 ft 458 kts 210°
2026-05-04 00:08 39.51565 -73.96252 36013 ft 458 kts 210°
2026-05-04 00:09 39.45655 -73.99366 36013 ft 458 kts 211°
2026-05-04 00:09 39.40150 -74.03249 36026 ft 446 kts 220°
2026-05-04 00:10 39.35278 -74.08085 36006 ft 438 kts 227°
2026-05-04 00:10 39.30652 -74.13194 36008 ft 437 kts 227°
2026-05-04 00:11 39.26802 -74.17426 36017 ft 437 kts 227°
2026-05-04 00:11 39.22161 -74.22496 36012 ft 437 kts 227°
2026-05-04 00:12 39.17516 -74.27551 35973 ft 437 kts 227°
2026-05-04 00:12 39.12886 -74.32577 36017 ft 435 kts 227°
2026-05-04 00:13 39.08268 -74.37585 36024 ft 433 kts 227°
2026-05-04 00:13 39.03662 -74.42571 36027 ft 432 kts 227°
2026-05-04 00:14 38.99063 -74.47543 36031 ft 431 kts 227°
2026-05-04 00:14 38.94477 -74.52489 36021 ft 430 kts 227°
2026-05-04 00:15 38.90025 -74.57555 36039 ft 426 kts 230°
2026-05-04 00:15 38.85681 -74.62721 36038 ft 426 kts 230°
2026-05-04 00:16 38.81311 -74.67860 36038 ft 426 kts 229°
2026-05-04 00:16 38.76956 -74.72935 36031 ft 425 kts 229°
2026-05-04 00:17 38.72480 -74.77884 36039 ft 426 kts 227°
2026-05-04 00:17 38.67876 -74.82655 36037 ft 425 kts 226°
2026-05-04 00:18 38.63283 -74.87416 36041 ft 425 kts 227°
2026-05-04 00:18 38.58702 -74.92178 36014 ft 424 kts 227°
2026-05-04 00:19 38.54130 -74.96925 36034 ft 423 kts 227°
2026-05-04 00:19 38.49652 -75.01757 36056 ft 420 kts 229°
2026-05-04 00:20 38.45190 -75.06589 36064 ft 424 kts 225°
2026-05-04 00:20 38.40449 -75.11085 36064 ft 425 kts 225°
2026-05-04 00:21 38.35706 -75.15561 36058 ft 423 kts 225°
2026-05-04 00:21 38.30983 -75.20035 36055 ft 423 kts 225°
2026-05-04 00:22 38.26268 -75.24505 36069 ft 422 kts 225°
2026-05-04 00:22 38.21554 -75.28967 36063 ft 422 kts 225°
2026-05-04 00:23 38.16844 -75.33418 36052 ft 421 kts 225°
2026-05-04 00:23 38.12138 -75.37858 36047 ft 421 kts 225°
2026-05-04 00:24 38.07439 -75.42286 36054 ft 421 kts 225°
2026-05-04 00:24 38.02728 -75.46626 36057 ft 423 kts 223°
2026-05-04 00:25 37.97842 -75.50818 36012 ft 424 kts 223°
2026-05-04 00:25 37.92977 -75.54998 36070 ft 422 kts 223°
2026-05-04 00:26 37.88131 -75.59196 36073 ft 422 kts 223°
2026-05-04 00:26 37.83044 -75.63017 36072 ft 431 kts 216°
2026-05-04 00:27 37.77429 -75.65921 36071 ft 438 kts 210°
2026-05-04 00:27 37.71727 -75.68626 36074 ft 437 kts 211°
2026-05-04 00:28 37.66046 -75.71335 36083 ft 436 kts 211°
2026-05-04 00:28 37.60376 -75.74050 36085 ft 436 kts 211°
2026-05-04 00:29 37.54711 -75.76765 36086 ft 435 kts 211°
2026-05-04 00:29 37.49045 -75.79478 36078 ft 436 kts 211°
2026-05-04 00:30 37.43376 -75.82185 36084 ft 436 kts 210°
2026-05-04 00:30 37.37702 -75.84890 36086 ft 436 kts 210°
2026-05-04 00:31 37.32028 -75.87590 36052 ft 436 kts 210°
2026-05-04 00:31 37.26360 -75.90282 36078 ft 435 kts 210°
2026-05-04 00:32 37.20743 -75.92947 36095 ft 435 kts 210°
2026-05-04 00:32 37.15089 -75.95626 36093 ft 434 kts 210°
2026-05-04 00:33 37.06614 -75.99632 36084 ft 433 kts 210°
2026-05-04 00:34 37.00967 -76.02296 36079 ft 433 kts 210°
2026-05-04 00:34 36.95329 -76.04953 36078 ft 433 kts 210°
2026-05-04 00:35 36.89686 -76.07607 36076 ft 433 kts 210°
2026-05-04 00:35 36.84056 -76.10250 36066 ft 432 kts 210°
2026-05-04 00:36 36.78436 -76.12885 36072 ft 431 kts 210°
2026-05-04 00:36 36.72823 -76.15513 36099 ft 431 kts 210°
2026-05-04 00:37 36.67195 -76.18144 36093 ft 432 kts 210°
2026-05-04 00:37 36.61573 -76.20767 36085 ft 431 kts 210°
2026-05-04 00:38 36.55956 -76.23383 36095 ft 431 kts 210°
2026-05-04 00:38 36.50341 -76.25995 36099 ft 431 kts 210°
2026-05-04 00:39 36.44727 -76.28603 36095 ft 431 kts 210°
2026-05-04 00:39 36.39122 -76.31201 36088 ft 429 kts 209°
2026-05-04 00:40 36.33575 -76.33770 36092 ft 428 kts 210°
2026-05-04 00:40 36.27992 -76.36351 36097 ft 428 kts 209°
2026-05-04 00:41 36.22416 -76.38926 36102 ft 427 kts 209°
2026-05-04 00:41 36.16851 -76.41491 36094 ft 426 kts 209°
2026-05-04 00:42 36.11289 -76.44052 36111 ft 426 kts 209°
2026-05-04 00:42 36.05727 -76.46608 36121 ft 426 kts 209°
2026-05-04 00:43 36.00164 -76.49161 36122 ft 427 kts 209°
2026-05-04 00:43 35.94637 -76.51695 36117 ft 426 kts 209°
2026-05-04 00:44 35.89077 -76.54314 36109 ft 422 kts 212°
2026-05-04 00:44 35.83899 -76.57493 36098 ft 418 kts 215°
2026-05-04 00:45 35.78701 -76.60716 36095 ft 419 kts 215°
2026-05-04 00:45 35.73493 -76.63925 36077 ft 418 kts 214°
2026-05-04 00:46 35.68294 -76.67119 36093 ft 417 kts 214°
2026-05-04 00:46 35.63104 -76.70303 36102 ft 417 kts 214°
2026-05-04 00:47 35.57918 -76.73482 36099 ft 416 kts 214°
2026-05-04 00:47 35.52734 -76.76655 36102 ft 416 kts 214°
2026-05-04 00:48 35.47562 -76.79814 36092 ft 414 kts 214°
2026-05-04 00:48 35.42399 -76.82965 36099 ft 414 kts 214°
2026-05-04 00:49 35.37245 -76.86107 36100 ft 414 kts 214°
2026-05-04 00:49 35.32088 -76.89247 36114 ft 414 kts 214°
2026-05-04 00:50 35.26918 -76.92388 36104 ft 415 kts 214°
2026-05-04 00:50 35.21781 -76.95526 36103 ft 415 kts 215°
2026-05-04 00:51 35.16640 -76.98750 36106 ft 415 kts 215°
2026-05-04 00:51 35.11497 -77.01984 36115 ft 416 kts 215°
2026-05-04 00:52 35.06345 -77.05210 36112 ft 416 kts 215°
2026-05-04 00:52 35.01199 -77.08423 36104 ft 415 kts 215°
2026-05-04 00:53 34.96060 -77.11625 36106 ft 415 kts 215°
2026-05-04 00:53 34.90928 -77.14820 36111 ft 414 kts 215°
2026-05-04 00:54 34.85798 -77.18009 36098 ft 414 kts 215°
2026-05-04 00:54 34.80664 -77.21195 36066 ft 413 kts 215°
2026-05-04 00:55 34.75552 -77.24364 36100 ft 412 kts 214°
2026-05-04 00:55 34.70441 -77.27527 36104 ft 412 kts 214°
2026-05-04 00:56 34.65326 -77.30690 36100 ft 413 kts 214°
2026-05-04 00:56 34.60203 -77.33853 36102 ft 413 kts 214°
2026-05-04 00:57 34.55080 -77.37010 36096 ft 412 kts 214°
2026-05-04 00:57 34.49837 -77.39908 36102 ft 419 kts 208°
2026-05-04 00:58 34.44186 -77.41888 36111 ft 428 kts 201°
2026-05-04 00:58 34.38279 -77.43087 36121 ft 431 kts 199°
2026-05-04 00:59 34.32362 -77.44207 36082 ft 430 kts 199°
2026-05-04 00:59 34.26464 -77.45337 36109 ft 428 kts 199°
2026-05-04 01:00 34.20595 -77.46479 36116 ft 427 kts 199°
2026-05-04 01:00 34.14743 -77.47622 36125 ft 426 kts 199°
2026-05-04 01:01 34.08939 -77.48755 36091 ft 425 kts 199°
2026-05-04 01:01 34.03107 -77.49890 36121 ft 424 kts 199°
2026-05-04 01:02 33.97285 -77.51022 36130 ft 424 kts 199°
2026-05-04 01:02 33.91461 -77.52153 36126 ft 424 kts 199°
2026-05-04 01:03 33.86583 -77.53099 36133 ft 424 kts 199°
2026-05-04 01:03 33.80759 -77.54227 36125 ft 423 kts 199°
2026-05-04 01:04 33.74946 -77.55350 36135 ft 423 kts 199°
2026-05-04 01:04 33.69132 -77.56473 36134 ft 423 kts 199°
2026-05-04 01:05 33.63359 -77.57587 36136 ft 423 kts 199°
2026-05-04 01:05 33.57579 -77.58791 36107 ft 418 kts 202°
2026-05-04 01:06 33.52058 -77.60699 36150 ft 412 kts 205°
2026-05-04 01:06 33.46549 -77.62647 36148 ft 413 kts 205°
2026-05-04 01:07 33.41026 -77.64581 36150 ft 414 kts 205°
2026-05-04 01:07 33.35491 -77.66513 36153 ft 414 kts 205°
2026-05-04 01:08 33.29957 -77.68443 36136 ft 414 kts 205°
2026-05-04 01:08 33.24434 -77.70366 36149 ft 413 kts 205°
2026-05-04 01:09 33.18921 -77.72285 36151 ft 413 kts 205°
2026-05-04 01:09 33.13407 -77.74202 36153 ft 412 kts 205°
2026-05-04 01:10 33.07898 -77.76114 36133 ft 412 kts 205°
2026-05-04 01:10 33.02435 -77.78007 36150 ft 411 kts 205°
2026-05-04 01:11 32.96944 -77.79908 36156 ft 411 kts 205°
2026-05-04 01:11 32.91457 -77.81806 36156 ft 411 kts 205°
2026-05-04 01:12 32.85969 -77.83701 36158 ft 411 kts 205°
2026-05-04 01:12 32.80480 -77.85595 36155 ft 411 kts 205°
2026-05-04 01:13 32.74985 -77.87487 36156 ft 411 kts 205°
2026-05-04 01:13 32.69491 -77.89378 36159 ft 411 kts 205°
2026-05-04 01:14 32.63983 -77.91240 36162 ft 412 kts 204°
2026-05-04 01:14 32.58445 -77.93029 36161 ft 413 kts 204°
2026-05-04 01:15 32.52912 -77.94807 36155 ft 411 kts 204°
2026-05-04 01:15 32.47389 -77.96590 36172 ft 412 kts 204°
2026-05-04 01:16 32.41892 -77.98367 36162 ft 413 kts 204°
2026-05-04 01:16 32.36342 -78.00158 36162 ft 414 kts 204°
2026-05-04 01:17 32.30780 -78.01952 36127 ft 414 kts 204°
2026-05-04 01:17 32.25220 -78.03742 36154 ft 414 kts 204°
2026-05-04 01:18 32.19662 -78.05530 36164 ft 414 kts 204°
2026-05-04 01:18 32.14106 -78.07315 36159 ft 414 kts 204°
2026-05-04 01:19 32.08552 -78.09097 36159 ft 413 kts 204°
2026-05-04 01:19 32.03003 -78.10874 36136 ft 412 kts 204°
2026-05-04 01:20 31.97511 -78.12631 36153 ft 411 kts 204°
2026-05-04 01:20 31.91988 -78.14397 36161 ft 411 kts 204°
2026-05-04 01:21 31.86469 -78.16159 36163 ft 411 kts 204°
2026-05-04 01:21 31.80944 -78.17921 36163 ft 411 kts 204°
2026-05-04 01:22 31.75427 -78.19678 36158 ft 411 kts 204°
2026-05-04 01:22 31.69910 -78.21434 36164 ft 411 kts 204°
2026-05-04 01:23 31.64390 -78.23188 36165 ft 411 kts 204°
2026-05-04 01:23 31.58868 -78.24940 36162 ft 411 kts 204°
2026-05-04 01:24 31.53343 -78.26692 36165 ft 411 kts 204°
2026-05-04 01:24 31.47831 -78.28435 36151 ft 410 kts 204°
2026-05-04 01:25 31.42354 -78.30224 36159 ft 408 kts 205°
2026-05-04 01:25 31.36912 -78.32060 36160 ft 407 kts 205°
2026-05-04 01:26 31.31471 -78.33893 36162 ft 407 kts 205°
2026-05-04 01:26 31.26066 -78.35705 36120 ft 406 kts 205°
2026-05-04 01:27 31.20643 -78.37515 36151 ft 405 kts 205°
2026-05-04 01:27 31.15234 -78.39318 36158 ft 404 kts 205°
2026-05-04 01:28 31.09832 -78.41118 36161 ft 403 kts 205°
2026-05-04 01:28 31.04397 -78.42926 36157 ft 403 kts 205°
2026-05-04 01:29 30.99038 -78.44707 36135 ft 403 kts 205°
2026-05-04 01:29 30.93648 -78.46495 36152 ft 402 kts 205°
2026-05-04 01:30 30.88266 -78.48280 36151 ft 402 kts 205°
2026-05-04 01:30 30.82887 -78.50061 36156 ft 402 kts 205°
2026-05-04 01:31 30.77508 -78.51840 36152 ft 402 kts 205°
2026-05-04 01:31 30.72127 -78.53618 36101 ft 402 kts 205°
2026-05-04 01:32 30.66758 -78.55389 36140 ft 401 kts 205°
2026-05-04 01:32 30.61391 -78.57158 36151 ft 401 kts 205°
2026-05-04 01:33 30.56025 -78.58925 36147 ft 401 kts 205°
2026-05-04 01:33 30.50652 -78.60692 36147 ft 401 kts 205°
2026-05-04 01:34 30.45315 -78.62445 36113 ft 401 kts 205°
2026-05-04 01:34 30.39953 -78.64204 36140 ft 401 kts 205°
2026-05-04 01:35 30.34581 -78.65964 36147 ft 401 kts 205°
2026-05-04 01:35 30.29215 -78.67721 36149 ft 401 kts 205°
2026-05-04 01:36 30.23842 -78.69479 36152 ft 401 kts 205°
2026-05-04 01:36 30.18465 -78.71235 36143 ft 402 kts 205°
2026-05-04 01:37 30.13084 -78.72995 36136 ft 402 kts 205°
2026-05-04 01:37 30.07705 -78.74753 36136 ft 402 kts 205°
2026-05-04 01:38 30.02326 -78.76510 36138 ft 402 kts 205°
2026-05-04 01:38 29.96950 -78.78263 36139 ft 401 kts 205°
2026-05-04 01:39 29.91576 -78.80014 36077 ft 401 kts 205°
2026-05-04 01:39 29.86214 -78.81759 36126 ft 400 kts 206°
2026-05-04 01:40 29.80855 -78.83502 36128 ft 400 kts 206°
2026-05-04 01:40 29.75371 -78.84903 36131 ft 411 kts 199°
2026-05-04 01:41 29.69664 -78.85624 36130 ft 414 kts 197°
2026-05-04 01:41 29.63976 -78.86295 36079 ft 413 kts 198°
2026-05-04 01:42 29.58224 -78.87026 36114 ft 413 kts 198°
2026-05-04 01:42 29.52552 -78.87780 36124 ft 413 kts 198°
2026-05-04 01:43 29.46794 -78.88555 36121 ft 414 kts 198°
2026-05-04 01:43 29.41103 -78.89320 36120 ft 415 kts 198°
2026-05-04 01:44 29.35369 -78.90088 36067 ft 415 kts 198°
2026-05-04 01:44 29.29635 -78.90855 36104 ft 415 kts 198°
2026-05-04 01:45 29.23891 -78.91624 36116 ft 416 kts 198°
2026-05-04 01:45 29.15260 -78.92777 36108 ft 417 kts 198°
2026-05-04 01:46 29.09503 -78.93544 36104 ft 417 kts 198°
2026-05-04 01:46 29.03745 -78.94310 36097 ft 416 kts 198°
2026-05-04 01:47 28.97979 -78.95078 36098 ft 418 kts 198°
2026-05-04 01:47 28.92197 -78.95848 36102 ft 419 kts 198°
2026-05-04 01:48 28.86397 -78.96618 36096 ft 420 kts 198°
2026-05-04 01:48 28.80591 -78.97387 36095 ft 420 kts 198°
2026-05-04 01:49 28.74779 -78.98156 36086 ft 420 kts 198°
2026-05-04 01:49 28.69000 -78.98921 36093 ft 421 kts 198°
2026-05-04 01:50 28.63171 -78.99692 36085 ft 422 kts 198°
2026-05-04 01:50 28.57334 -79.00462 36086 ft 422 kts 198°
2026-05-04 01:51 28.51495 -79.01231 36081 ft 422 kts 198°
2026-05-04 01:51 28.45659 -79.02000 36071 ft 422 kts 198°
2026-05-04 01:52 28.39818 -79.02769 36077 ft 423 kts 198°
2026-05-04 01:52 28.33983 -79.03582 36077 ft 418 kts 201°
2026-05-04 01:53 28.28534 -79.05447 36070 ft 407 kts 208°
2026-05-04 01:53 28.23182 -79.07558 36078 ft 407 kts 208°
2026-05-04 01:54 28.18719 -79.09279 36062 ft 408 kts 207°
2026-05-04 01:54 28.13317 -79.11317 36070 ft 410 kts 207°
2026-05-04 01:55 28.07892 -79.13339 36073 ft 411 kts 207°
2026-05-04 01:55 28.02448 -79.15362 36071 ft 412 kts 207°
2026-05-04 01:56 27.96999 -79.17384 36061 ft 412 kts 207°
2026-05-04 01:56 27.91546 -79.19406 36039 ft 413 kts 207°
2026-05-04 01:57 27.86076 -79.21435 36056 ft 415 kts 206°
2026-05-04 01:57 27.80571 -79.23474 36066 ft 417 kts 206°
2026-05-04 01:58 27.75039 -79.25520 36062 ft 419 kts 206°
2026-05-04 01:58 27.69528 -79.27554 36059 ft 420 kts 206°
2026-05-04 01:59 27.63975 -79.29602 36004 ft 420 kts 206°
2026-05-04 01:59 27.58433 -79.31644 35986 ft 417 kts 206°
2026-05-04 02:00 27.52959 -79.33657 35954 ft 414 kts 206°
2026-05-04 02:00 27.47433 -79.35697 35965 ft 420 kts 206°
2026-05-04 02:01 27.41874 -79.37738 35949 ft 418 kts 206°
2026-05-04 02:01 27.36461 -79.39717 35552 ft 402 kts 206°
2026-05-04 02:02 27.33814 -79.40689 35037 ft 399 kts 206°
2026-05-04 02:02 27.31184 -79.41656 34491 ft 396 kts 206°
2026-05-04 02:02 27.28568 -79.42616 33916 ft 395 kts 206°
2026-05-04 02:02 27.25965 -79.43569 33314 ft 393 kts 206°
2026-05-04 02:03 27.23375 -79.44515 32744 ft 390 kts 205°
2026-05-04 02:03 27.20808 -79.45454 32180 ft 387 kts 205°
2026-05-04 02:03 27.18256 -79.46387 31649 ft 384 kts 205°
2026-05-04 02:03 27.15720 -79.47314 31117 ft 382 kts 205°
2026-05-04 02:04 27.13200 -79.48236 30593 ft 380 kts 205°
2026-05-04 02:04 27.10692 -79.49153 30057 ft 379 kts 205°
2026-05-04 02:04 27.08190 -79.50067 29439 ft 377 kts 205°
2026-05-04 02:04 27.05704 -79.50973 28841 ft 374 kts 204°
2026-05-04 02:05 27.03241 -79.51870 28320 ft 371 kts 204°
2026-05-04 02:05 27.00792 -79.52762 27796 ft 369 kts 205°
2026-05-04 02:05 26.98357 -79.53650 27270 ft 367 kts 205°
2026-05-04 02:05 26.95936 -79.54532 26757 ft 365 kts 205°
2026-05-04 02:06 26.93522 -79.55412 26247 ft 364 kts 205°
2026-05-04 02:06 26.91120 -79.56286 25745 ft 362 kts 205°
2026-05-04 02:06 26.88726 -79.57156 25237 ft 362 kts 205°
2026-05-04 02:06 26.86332 -79.58022 24726 ft 361 kts 204°
2026-05-04 02:07 26.83940 -79.58885 24219 ft 361 kts 204°
2026-05-04 02:07 26.81547 -79.59747 23708 ft 361 kts 204°
2026-05-04 02:07 26.79156 -79.60609 23137 ft 361 kts 204°
2026-05-04 02:07 26.76771 -79.61468 22583 ft 359 kts 204°
2026-05-04 02:08 26.74396 -79.62323 22078 ft 357 kts 204°
2026-05-04 02:08 26.72034 -79.63174 21590 ft 356 kts 204°
2026-05-04 02:08 26.69686 -79.64019 21102 ft 354 kts 204°
2026-05-04 02:08 26.67346 -79.64861 20619 ft 352 kts 204°
2026-05-04 02:09 26.65016 -79.65700 20134 ft 351 kts 203°
2026-05-04 02:09 26.62726 -79.66523 19661 ft 350 kts 203°
2026-05-04 02:09 26.60408 -79.67344 19174 ft 350 kts 202°
2026-05-04 02:09 26.58086 -79.68156 18680 ft 349 kts 202°
2026-05-04 02:10 26.55766 -79.68966 18175 ft 349 kts 202°
2026-05-04 02:10 26.53451 -79.69774 17641 ft 348 kts 202°
2026-05-04 02:10 26.51150 -79.70579 17143 ft 346 kts 202°
2026-05-04 02:10 26.48857 -79.71380 16636 ft 344 kts 202°
2026-05-04 02:11 26.46621 -79.72240 16159 ft 334 kts 210°
2026-05-04 02:11 26.44748 -79.73666 15921 ft 320 kts 226°
2026-05-04 02:11 26.43245 -79.75460 15712 ft 316 kts 230°
2026-05-04 02:11 26.41768 -79.77309 15533 ft 322 kts 230°
2026-05-04 02:12 26.40252 -79.79178 15319 ft 326 kts 230°
2026-05-04 02:12 26.38722 -79.81047 15093 ft 326 kts 230°
2026-05-04 02:12 26.37310 -79.83002 14885 ft 323 kts 236°
2026-05-04 02:12 26.36062 -79.85067 14703 ft 318 kts 238°
2026-05-04 02:13 26.34846 -79.87094 14480 ft 310 kts 237°
2026-05-04 02:13 26.33643 -79.89053 14302 ft 302 kts 237°
2026-05-04 02:13 26.32461 -79.90956 14111 ft 294 kts 237°
2026-05-04 02:13 26.31307 -79.92804 13932 ft 287 kts 237°
2026-05-04 02:14 26.30179 -79.94606 13743 ft 281 kts 237°
2026-05-04 02:14 26.29064 -79.96387 13571 ft 281 kts 237°
2026-05-04 02:14 26.27944 -79.98174 13385 ft 281 kts 237°
2026-05-04 02:14 26.26825 -79.99958 13219 ft 281 kts 237°
2026-05-04 02:15 26.25562 -80.01539 13020 ft 279 kts 219°
2026-05-04 02:15 26.23834 -80.02555 12870 ft 285 kts 202°
2026-05-04 02:15 26.21892 -80.03071 12698 ft 289 kts 196°
2026-05-04 02:15 26.19916 -80.03500 12515 ft 291 kts 195°
2026-05-04 02:16 26.17923 -80.03928 12333 ft 292 kts 195°
2026-05-04 02:16 26.15920 -80.04365 12157 ft 294 kts 195°
2026-05-04 02:16 26.13913 -80.04812 11964 ft 295 kts 195°
2026-05-04 02:16 26.11901 -80.05267 11786 ft 295 kts 196°
2026-05-04 02:17 26.09887 -80.05725 11600 ft 295 kts 195°
2026-05-04 02:17 26.07879 -80.06182 11417 ft 293 kts 195°
2026-05-04 02:17 26.05900 -80.06649 11235 ft 289 kts 197°
2026-05-04 02:17 26.03957 -80.07153 11046 ft 285 kts 198°
2026-05-04 02:18 26.02036 -80.07660 10884 ft 283 kts 198°
2026-05-04 02:18 26.00120 -80.08164 10708 ft 282 kts 197°
2026-05-04 02:18 25.98212 -80.08663 10546 ft 282 kts 197°
2026-05-04 02:18 25.96302 -80.09161 10370 ft 282 kts 197°
2026-05-04 02:19 25.94394 -80.09656 10204 ft 281 kts 197°
2026-05-04 02:19 25.92508 -80.10151 10019 ft 274 kts 199°
2026-05-04 02:19 25.90767 -80.10913 9839 ft 266 kts 210°
2026-05-04 02:19 25.89140 -80.11869 9665 ft 263 kts 212°
2026-05-04 02:20 25.87535 -80.12846 9507 ft 263 kts 212°
2026-05-04 02:20 25.85933 -80.13811 9339 ft 262 kts 211°
2026-05-04 02:20 25.84325 -80.14766 9182 ft 262 kts 211°
2026-05-04 02:20 25.82717 -80.15712 9014 ft 262 kts 211°
2026-05-04 02:21 25.81105 -80.16653 8857 ft 262 kts 211°
2026-05-04 02:21 25.79496 -80.17587 8699 ft 260 kts 211°
2026-05-04 02:21 25.77898 -80.18510 8540 ft 258 kts 210°
2026-05-04 02:21 25.76329 -80.19415 8381 ft 257 kts 210°
2026-05-04 02:22 25.74745 -80.20329 8229 ft 256 kts 210°
2026-05-04 02:22 25.73240 -80.21347 8056 ft 252 kts 226°
2026-05-04 02:22 25.72256 -80.22960 7822 ft 257 kts 249°
2026-05-04 02:22 25.71800 -80.24888 7570 ft 260 kts 257°
2026-05-04 02:23 25.71404 -80.26844 7310 ft 259 kts 256°
2026-05-04 02:23 25.71105 -80.28803 7035 ft 257 kts 264°
2026-05-04 02:23 25.71016 -80.30771 6782 ft 254 kts 266°
2026-05-04 02:23 25.70961 -80.32722 6510 ft 252 kts 266°
2026-05-04 02:24 25.70898 -80.34659 6233 ft 250 kts 266°
2026-05-04 02:24 25.70823 -80.36575 5954 ft 248 kts 266°
2026-05-04 02:24 25.70739 -80.38475 5703 ft 246 kts 265°
2026-05-04 02:24 25.70652 -80.40363 5444 ft 244 kts 265°
2026-05-04 02:25 25.70562 -80.42241 5189 ft 244 kts 266°
2026-05-04 02:25 25.70467 -80.44116 5091 ft 243 kts 265°
2026-05-04 02:25 25.70312 -80.46005 4944 ft 250 kts 263°
2026-05-04 02:25 25.70125 -80.47934 4761 ft 252 kts 263°
2026-05-04 02:26 25.69935 -80.49853 4631 ft 249 kts 263°
2026-05-04 02:26 25.69740 -80.51746 4524 ft 246 kts 263°
2026-05-04 02:26 25.69569 -80.53628 4435 ft 245 kts 263°
2026-05-04 02:26 25.69406 -80.55516 4385 ft 249 kts 264°
2026-05-04 02:27 25.69239 -80.57439 4343 ft 253 kts 264°
2026-05-04 02:27 25.69072 -80.59376 4311 ft 252 kts 264°
2026-05-04 02:27 25.68906 -80.61304 4300 ft 250 kts 264°
2026-05-04 02:27 25.69018 -80.63195 4257 ft 249 kts 288°
2026-05-04 02:28 25.69968 -80.64808 4282 ft 257 kts 317°
2026-05-04 02:28 25.71551 -80.65729 4281 ft 260 kts 344°
2026-05-04 02:28 25.73348 -80.65978 4253 ft 264 kts
2026-05-04 02:28 25.75102 -80.65380 4241 ft 268 kts 31°
2026-05-04 02:29 25.76382 -80.63916 4211 ft 264 kts 62°
2026-05-04 02:29 25.76947 -80.62028 4167 ft 253 kts 78°
2026-05-04 02:29 25.77278 -80.60164 4116 ft 241 kts 81°
2026-05-04 02:29 25.77476 -80.58355 4043 ft 234 kts 86°
2026-05-04 02:30 25.77579 -80.56544 4014 ft 234 kts 87°
2026-05-04 02:30 25.77652 -80.54788 3989 ft 221 kts 88°
2026-05-04 02:30 25.77720 -80.53114 3747 ft 215 kts 88°
2026-05-04 02:30 25.77784 -80.51517 3510 ft 201 kts 88°
2026-05-04 02:31 25.77848 -80.49968 3253 ft 201 kts 88°
2026-05-04 02:31 25.77910 -80.48452 3000 ft 198 kts 88°
2026-05-04 02:31 25.77973 -80.46935 2746 ft 197 kts 88°
2026-05-04 02:31 25.78036 -80.45422 2482 ft 194 kts 88°
2026-05-04 02:32 25.78096 -80.43977 2265 ft 179 kts 88°
2026-05-04 02:32 25.78151 -80.42648 2011 ft 165 kts 88°
2026-05-04 02:32 25.78200 -80.41444 1805 ft 150 kts 88°
2026-05-04 02:32 25.78248 -80.40288 1668 ft 150 kts 88°
2026-05-04 02:33 25.78297 -80.39120 1438 ft 152 kts 87°
2026-05-04 02:33 25.78345 -80.37956 1240 ft 150 kts 87°
2026-05-04 02:33 25.78393 -80.36801 1041 ft 150 kts 86°
2026-05-04 02:33 25.78440 -80.35653 855 ft 148 kts 86°
2026-05-04 02:34 25.78509 -80.34535 669 ft 144 kts 82°
2026-05-04 02:34 25.78570 -80.33476 464 ft 137 kts 90°
2026-05-04 02:34 25.78573 -80.32417 294 ft 140 kts 86°
2026-05-04 02:34 25.78618 -80.31325 119 ft 143 kts 86°
2026-05-04 02:35 25.78666 -80.30280 26 ft 123 kts 86°
2026-05-04 02:35 25.78695 -80.29444 24 ft 91 kts 88°
2026-05-04 02:35 25.78722 -80.28880 26 ft 56 kts 87°
2026-05-04 02:35 25.78742 -80.28588 24 ft 20 kts 76°
2026-05-04 02:36 25.78763 -80.28525 24 ft 12 kts 65°
2026-05-04 02:36 25.78815 -80.28441 26 ft 13 kts 52°
2026-05-04 02:36 25.78846 -80.28398 25 ft 3 kts 52°
2026-05-04 02:36 25.78853 -80.28387 27 ft 0 kts 52°
2026-05-04 02:39 25.78855 -80.28386 27 ft 1 kts 52°
2026-05-04 02:39 25.78864 -80.28372 29 ft 4 kts 53°
2026-05-04 02:39 25.78895 -80.28289 27 ft 20 kts 82°
2026-05-04 02:40 25.78901 -80.28154 28 ft 11 kts 87°
2026-05-04 02:40 25.78907 -80.28068 27 ft 11 kts 84°
2026-05-04 02:40 25.78891 -80.27981 27 ft 13 kts 112°
2026-05-04 02:40 25.78876 -80.27869 25 ft 16 kts 89°
2026-05-04 02:41 25.78881 -80.27747 23 ft 13 kts 87°
2026-05-04 02:41 25.78887 -80.27643 27 ft 13 kts 81°
2026-05-04 02:41 25.78904 -80.27568 26 ft 8 kts 79°
2026-05-04 02:41 25.78943 -80.27516 26 ft 11 kts 12°
2026-05-04 02:42 25.79018 -80.27515 25 ft 11 kts
2026-05-04 02:42 25.79078 -80.27509 23 ft 6 kts
2026-05-04 02:42 25.79104 -80.27508 22 ft 4 kts 359°
2026-05-04 02:42 25.79144 -80.27503 22 ft 7 kts 17°
2026-05-04 02:43 25.79174 -80.27468 22 ft 4 kts 66°
2026-05-04 02:43 25.79182 -80.27437 21 ft 3 kts 84°
2026-05-04 02:43 25.79183 -80.27427 21 ft 1 kts 86°
2026-05-04 02:43 25.79183 -80.27425 22 ft 0 kts 86°